[[{"header":{"parameterUnit":"m.s-1","parameterCategory":1,"la1":30.2991,"la2":30.254,"lo1":-89.0895,"lo2":-89.0444,"dy":0.0017,"dx":0.0017,"nx":28,"ny":28,"refTime":"2024-05-06T03:00:00:Z","depth":0,"parameterNumber":2,"parameterNumberName":"U-component_of_WINDS"},"data":[0,0,0,0,0,0,0,0,0,0,0,0,0,0,0,0,0,0,0,0,0,0,0,0,0,0,0,0,0,0,0,0,0,0,0,0,0,0,0,0,0,0,0,0,0,0,0,0,0,0,0,0,0,0,0,0,0,0,-2.4087,-2.4087,0,-2.4087,-2.4087,-2.4087,-2.405,-2.4049,-2.4048,-2.4047,-2.405,-2.4051,-2.4052,0,0,0,0,0,0,0,0,0,0,0,0,0,-2.4055,-2.4056,-2.4087,-2.4087,-2.4087,-2.4087,-2.4087,-2.4087,-2.405,-2.4049,-2.4048,-2.4046,-2.405,-2.4051,-2.4052,0,0,0,0,0,0,0,0,0,0,0,0,0,-2.4063,-2.4056,-2.4087,-2.4068,-2.4066,-2.4087,-2.4087,-2.4087,-2.405,-2.4049,-2.4047,-2.4046,-2.4049,-2.4051,-2.4052,-2.4092,0,0,-2.4057,-2.4058,0,0,0,0,0,0,0,0,-2.4063,-2.4065,-2.4071,-2.4069,-2.4067,-2.4067,-2.4077,-2.4089,-2.4051,-2.4056,-2.4047,-2.4045,-2.4057,-2.4058,-2.4061,-2.4092,-2.4092,-2.4057,-2.4058,-2.4059,-2.4059,0,0,0,0,0,0,0,-2.4062,-2.4064,-2.4087,-2.4071,-2.4069,-2.406,-2.406,-2.4079,-2.4065,-2.4056,-2.4053,-2.4054,-2.4056,-2.406,-2.4061,-2.4092,-2.4057,-2.4058,-2.4059,-2.406,-2.4156,-2.4157,0,0,0,0,0,0,-2.4064,-2.4064,-2.4087,-2.4087,-2.4061,-2.4062,-2.4062,-2.4069,-2.4065,-2.4063,-2.4055,-2.4052,-2.4058,-2.4059,-2.4061,-2.4107,-2.4059,-2.406,-2.4061,-2.4154,-2.4156,-2.4158,0,0,0,0,0,0,-2.4064,-2.4066,-2.4087,-2.4075,-2.4077,-2.4064,-2.4072,-2.4069,-2.4073,-2.4064,-2.4062,-2.4061,-2.4057,-2.4059,-2.4084,-2.4106,-2.4061,-2.4062,-2.4152,-2.4155,-2.4157,-2.4199,0,0,0,0,0,0,-2.4063,-2.4066,-2.4081,-2.4075,-2.4078,-2.4109,-2.4074,-2.4071,-2.4076,-2.4072,-2.407,-2.4068,-2.4056,-2.4082,-2.4086,-2.4108,-2.4063,-2.415,-2.4153,-2.4156,-2.4196,-2.4203,-2.4209,0,0,0,0,0,-2.4062,-2.4093,-2.4082,-2.4085,-2.4095,-2.4111,-2.4112,-2.4097,-2.4078,-2.4092,-2.4087,-2.4068,-2.4104,-2.4085,-2.4089,-2.4112,-2.4149,-2.4152,-2.4156,-2.4193,-2.4201,-2.4209,0,0,0,0,0,0,-2.4102,-2.4092,-2.4079,-2.411,-2.4111,-2.4104,-2.4122,-2.4107,-2.4114,-2.411,-2.4092,-2.4092,-2.412,-2.4119,-2.4098,-2.415,-2.4123,-2.4128,-2.415,-2.4158,-2.4164,-2.4163,-2.4065,0,0,0,0,0,-2.4115,-2.4127,-2.4118,-2.4146,-2.4148,-2.4135,-2.4141,-2.4129,-2.4131,-2.4131,-2.4127,-2.413,-2.4142,-2.415,-2.416,-2.4196,-2.4195,-2.4213,-2.422,-2.4225,-2.4229,-2.4248,-2.4256,-2.417,-2.417,-2.417,0,0,-2.4141,-2.4137,-2.4146,-2.4154,-2.4154,-2.4168,-2.4136,-2.4152,-2.4163,-2.4134,-2.4157,-2.4155,-2.4157,-2.4187,-2.4201,-2.4187,-2.4253,-2.423,-2.4234,-2.4235,-2.4252,-2.4261,-2.4268,-2.4172,-2.4172,-2.4172,0,0,-2.4195,-2.4193,-2.4216,-2.4216,-2.4216,-2.4208,-2.4213,-2.4209,-2.4206,-2.4229,-2.4207,-2.422,-2.4241,-2.4243,-2.4247,-2.4302,-2.4286,-2.4307,-2.434,-2.4359,-2.4365,-2.4371,-2.4391,-2.4398,-2.4311,-2.4311,-2.4311,0,-2.4227,-2.4247,-2.423,-2.4247,-2.4252,-2.4226,-2.4249,-2.4251,-2.4255,-2.4258,-2.4243,-2.4268,-2.4268,-2.4298,-2.4312,-2.4316,-2.4322,-2.4306,-2.4366,-2.4371,-2.4377,-2.4395,-2.4402,-2.4313,-2.4313,-2.4313,-2.4313,0,-2.4286,-2.43,-2.4319,-2.4322,-2.4329,-2.4349,-2.4336,-2.4345,-2.4333,-2.4327,-2.4351,-2.4349,-2.4359,-2.4365,-2.4354,-2.4395,-2.4386,-2.4369,-2.4341,-2.4388,-2.4404,-2.4411,-2.4317,-2.4316,-2.4315,-2.4315,0,0,-2.4365,-2.4358,-2.4365,-2.4366,-2.4365,-2.4376,-2.4396,-2.4404,-2.4412,-2.4416,-2.4432,-2.4451,-2.4434,-2.4439,-2.4428,-2.4444,-2.4488,-2.4425,-2.4424,-2.4436,-2.4532,-2.4545,-2.4553,-2.4477,-2.4479,-2.448,-2.4532,0,-2.4417,-2.4449,-2.4434,-2.4468,-2.4481,-2.4457,-2.4474,-2.4476,-2.4471,-2.4481,-2.4476,-2.4489,-2.4467,-2.4469,-2.4485,-2.4479,-2.4507,-2.4476,-2.4492,-2.4493,-2.4492,-2.4562,-2.4575,-2.4625,-2.4539,-2.454,-2.454,0,-2.4481,-2.4486,-2.4521,-2.4517,-2.4522,-2.4538,-2.4544,-2.4555,-2.4557,-2.4552,-2.4557,-2.4542,-2.4562,-2.4536,-2.4563,-2.4542,-2.4548,-2.4547,-2.4549,-2.4549,-2.4519,-2.4564,-2.464,-2.4647,-2.4551,-2.455,-2.4549,0,-2.4534,-2.4551,-2.4573,-2.4575,-2.4571,-2.4583,-2.4582,-2.4581,-2.4588,-2.4594,-2.4598,-2.4607,-2.4612,-2.462,-2.4609,-2.459,-2.4638,-2.461,-2.4635,-2.4635,-2.4645,-2.4644,-2.4723,-2.465,-2.465,-2.465,-2.465,0,-2.4593,-2.4615,-2.4597,-2.4611,-2.4635,-2.4619,-2.4644,-2.4641,-2.4641,-2.4654,-2.4635,-2.4649,-2.4633,-2.4646,-2.4637,-2.4661,-2.4664,-2.4661,-2.4658,-2.4662,-2.4662,-2.4665,-2.4661,-2.4652,-2.4652,-2.4651,-2.4651,0,-2.4656,-2.4645,-2.4668,-2.4662,-2.4661,-2.4679,-2.4675,-2.4688,-2.4681,-2.4699,-2.4702,-2.4692,-2.4706,-2.4696,-2.4709,-2.4704,-2.4735,-2.4728,-2.4734,-2.4732,-2.4756,-2.4754,-2.4839,-2.4849,-2.4771,-2.4772,-2.4773,0,-2.4694,-2.471,-2.4706,-2.4713,-2.4713,-2.4725,-2.4731,-2.4716,-2.4723,-2.4726,-2.4739,-2.4751,-2.4759,-2.4782,-2.4777,-2.4787,-2.478,-2.4809,-2.4781,-2.4784,-2.4779,-2.4778,-2.478,-2.4814,-2.4815,-2.4816,-2.4816,0,-2.4762,-2.4755,-2.4764,-2.4771,-2.4778,-2.4783,-2.4787,-2.4794,-2.4779,-2.4788,-2.4801,-2.4808,-2.4821,-2.4833,-2.4842,-2.4842,-2.4827,-2.4825,-2.4831,-2.4835,-2.4837,-2.4836,-2.4748,-2.4823,-2.4822,-2.4822,-2.4821,-2.4821,-2.4813,-2.4826,-2.4825,-2.4835,-2.4836,-2.484,-2.4852,-2.4847,-2.4857,-2.4866,-2.4857,-2.4873,-2.4875,-2.4884,-2.4886,-2.4899,-2.4887,-2.4896,-2.4898,-2.49,-2.4904,-2.4836,-2.4901,-2.4901,-2.49,-2.49,-2.49,0,-2.4879,-2.4877,-2.4887,-2.4892,-2.49,-2.4885,-2.4888,-2.4897,-2.491,-2.4913,-2.4921,-2.4936,-2.4948,-2.4944,-2.4954,-2.4965,-2.4959,-2.4968,-2.4967,-2.4967,-2.4914,-2.4907,-2.4973,-2.4973,-2.4973,-2.4973,-2.4973,-2.4973,-2.4915,-2.4936,-2.493,-2.4952,-2.495,-2.4964,-2.4967,-2.4971,-2.4973,-2.499,-2.4999,-2.4996,-2.4996,-2.5006,-2.5017,-2.5015,-2.502,-2.5032,-2.5028,-2.4978,-2.4971,-2.4964,-2.4958,-2.5033,-2.5033,-2.508,-2.5081,-2.5081]},{"header":{"parameterUnit":"m.s-1","parameterCategory":1,"la1":30.2991,"la2":30.254,"lo1":-89.0895,"lo2":-89.0444,"dy":0.0017,"dx":0.0017,"nx":28,"ny":28,"refTime":"2024-05-06T03:00:00:Z","depth":0,"parameterNumber":3,"parameterNumberName":"V-component_of_WINDS"},"data":[0,0,0,0,0,0,0,0,0,0,0,0,0,0,0,0,0,0,0,0,0,0,0,0,0,0,0,0,0,0,0,0,0,0,0,0,0,0,0,0,0,0,0,0,0,0,0,0,0,0,0,0,0,0,0,0,0,0,3.2745,3.2745,0,3.279,3.279,3.2791,3.2765,3.2764,3.2763,3.2761,3.2806,3.2808,3.2811,0,0,0,0,0,0,0,0,0,0,0,0,0,3.2633,3.2636,3.2745,3.2745,3.2746,3.279,3.279,3.2791,3.2765,3.2764,3.2762,3.2761,3.2805,3.2808,3.2811,0,0,0,0,0,0,0,0,0,0,0,0,0,3.268,3.2636,3.2745,3.2739,3.2738,3.279,3.279,3.2791,3.2766,3.2764,3.2762,3.276,3.2804,3.2808,3.2811,3.2871,0,0,3.2822,3.2824,0,0,0,0,0,0,0,0,3.2678,3.2685,3.2739,3.2739,3.2739,3.277,3.2767,3.2818,3.2766,3.2755,3.2761,3.2759,3.2795,3.28,3.2812,3.2873,3.2875,3.2822,3.2824,3.2826,3.2827,0,0,0,0,0,0,0,3.2675,3.2682,3.2763,3.274,3.274,3.2732,3.2737,3.2777,3.2785,3.2756,3.2754,3.276,3.2795,3.2809,3.2813,3.2875,3.2822,3.2825,3.2828,3.2829,3.2985,3.2986,0,0,0,0,0,0,3.2672,3.268,3.2761,3.2764,3.2703,3.2736,3.2741,3.2762,3.2785,3.2787,3.2762,3.2759,3.2804,3.2809,3.2814,3.2884,3.2826,3.2829,3.2831,3.2983,3.2985,3.2987,0,0,0,0,0,0,3.267,3.268,3.2759,3.2721,3.2731,3.274,3.2763,3.2764,3.2778,3.2789,3.279,3.2774,3.2802,3.2809,3.2856,3.2885,3.2831,3.2834,3.298,3.2983,3.2986,3.3025,0,0,0,0,0,0,3.2667,3.2679,3.2703,3.2722,3.2733,3.2802,3.2765,3.2766,3.2784,3.278,3.2801,3.2803,3.2801,3.2851,3.286,3.2889,3.2837,3.2978,3.2982,3.2985,3.3021,3.3029,3.3036,0,0,0,0,0,3.2663,3.2712,3.2704,3.2714,3.2763,3.2804,3.281,3.2808,3.2786,3.2809,3.2816,3.2802,3.2881,3.2856,3.2866,3.2897,3.2976,3.298,3.2985,3.3018,3.3028,3.3036,0,0,0,0,0,0,3.2696,3.2715,3.2706,3.2763,3.2782,3.2799,3.2829,3.2818,3.2843,3.2839,3.2834,3.2839,3.2888,3.2897,3.287,3.2954,3.2925,3.2931,3.2947,3.2956,3.2963,3.296,3.284,0,0,0,0,0,3.271,3.2742,3.2756,3.2805,3.2815,3.282,3.2838,3.2834,3.2853,3.2861,3.2872,3.289,3.2919,3.2938,3.2965,3.3022,3.3025,3.3048,3.3055,3.3061,3.3067,3.3096,3.3105,3.3002,3.3002,3.3002,0,0,3.2739,3.2753,3.2774,3.2812,3.2827,3.2859,3.2827,3.2863,3.2886,3.2867,3.2911,3.292,3.294,3.2992,3.3015,3.3001,3.3096,3.3067,3.3071,3.3074,3.3101,3.3111,3.312,3.3005,3.3005,3.3004,0,0,3.2809,3.2823,3.2865,3.2879,3.2901,3.2904,3.2913,3.2932,3.2936,3.2981,3.2966,3.2993,3.3043,3.3058,3.3072,3.3144,3.3131,3.3153,3.3191,3.3219,3.3227,3.3234,3.3259,3.3268,3.3158,3.3158,3.3158,0,3.2843,3.2891,3.2888,3.2924,3.294,3.2923,3.2964,3.2978,3.3008,3.3019,3.3002,3.3063,3.3076,3.313,3.3147,3.3159,3.3169,3.315,3.3226,3.3233,3.324,3.3263,3.3273,3.3161,3.3161,3.316,3.316,0,3.2931,3.2964,3.2995,3.3023,3.3043,3.3082,3.3083,3.3103,3.3097,3.3101,3.3145,3.3159,3.3188,3.3201,3.3196,3.3253,3.3244,3.3227,3.3197,3.3252,3.3274,3.3283,3.3164,3.3163,3.3163,3.3162,0,0,3.3025,3.3048,3.306,3.3071,3.3093,3.3118,3.3155,3.3183,3.3199,3.3219,3.3249,3.3291,3.3274,3.329,3.3286,3.3311,3.3365,3.3291,3.3291,3.3303,3.3428,3.344,3.3451,3.3357,3.3358,3.336,3.3426,0,3.3095,3.316,3.3156,3.3217,3.3246,3.3229,3.3261,3.3276,3.328,3.3305,3.3309,3.3338,3.3316,3.3325,3.3348,3.3354,3.339,3.3349,3.3383,3.3384,3.3379,3.3462,3.3476,3.3538,3.3435,3.3436,3.3437,0,3.3187,3.3209,3.3272,3.3287,3.3299,3.3328,3.3352,3.3376,3.3393,3.3393,3.341,3.3401,3.3436,3.3405,3.3453,3.3425,3.3439,3.3443,3.3445,3.3449,3.3414,3.3467,3.3558,3.3567,3.3451,3.345,3.3449,0,3.3248,3.3293,3.3336,3.3347,3.3365,3.3385,3.3394,3.3408,3.3425,3.3445,3.3455,3.348,3.3493,3.3512,3.3509,3.3487,3.3557,3.3527,3.3558,3.3558,3.3574,3.3573,3.3668,3.3584,3.3583,3.3583,3.3583,0,3.3327,3.3366,3.3364,3.3391,3.3433,3.3427,3.3469,3.3475,3.3488,3.3514,3.35,3.3525,3.352,3.3545,3.3543,3.3582,3.3588,3.3589,3.3588,3.359,3.359,3.3599,3.3594,3.3586,3.3585,3.3585,3.3584,0,3.3403,3.3403,3.3449,3.3461,3.3465,3.3496,3.3506,3.353,3.3532,3.3565,3.3573,3.3576,3.3603,3.3602,3.3634,3.3632,3.368,3.3674,3.3675,3.3673,3.3705,3.3701,3.3808,3.3822,3.3729,3.373,3.3731,0,3.3453,3.3483,3.3498,3.3514,3.3524,3.3551,3.3567,3.3561,3.3578,3.3598,3.3619,3.3646,3.3666,3.3711,3.3716,3.3739,3.3733,3.3769,3.3737,3.3737,3.3733,3.3731,3.3733,3.3776,3.3777,3.3777,3.3778,0,3.3543,3.354,3.3564,3.3587,3.3607,3.3625,3.3641,3.3655,3.3651,3.3671,3.3699,3.3715,3.3746,3.3772,3.3794,3.3801,3.3789,3.3788,3.3796,3.3799,3.3798,3.3798,3.3691,3.3786,3.3785,3.3784,3.3784,3.3784,3.3607,3.3631,3.3645,3.3671,3.3683,3.3698,3.372,3.3724,3.3747,3.3772,3.3767,3.3798,3.3811,3.3839,3.3849,3.3872,3.3859,3.3872,3.3875,3.3878,3.3881,3.3794,3.3876,3.3876,3.3876,3.3875,3.3875,0,3.3695,3.3702,3.3726,3.3749,3.3769,3.3754,3.3771,3.3789,3.3816,3.3829,3.3849,3.388,3.3904,3.391,3.3933,3.395,3.3945,3.3956,3.3955,3.3956,3.3892,3.3882,3.396,3.396,3.396,3.396,3.396,3.396,3.3743,3.3783,3.3782,3.3827,3.3833,3.3863,3.3874,3.3887,3.3897,3.3932,3.3952,3.3955,3.3964,3.3987,3.4008,3.4009,3.4018,3.4032,3.403,3.397,3.3961,3.3953,3.3944,3.4034,3.4034,3.4093,3.4093,3.4094]}]]